Timeline UpdatesTrip UpdatesNews PostsPvt Posts♥♥Travel TipsAdmin PostsConv PostsFollowed PostsChat RequestsBlog PostsPNR Posts

Disclaimer
Search
 
 
Tue Oct 21, 2014 15:56:33 ISTHomeTrainsΣChainsAtlasPNRForumGalleryNewsFAQTripsMembersLoginFeedback
No Recent News for this Train
Other Trains in the News **new
Latest...
.
Sat Jan 26, 2013 (03:08PM)
⇐ Return Journey: Train# 59440

59439/Mumbai Central-Ahmedabad Passenger

Time-Table HAS CHANGED.
Sep 02 2014 (12:22AM)
Change Departure Station:
Change Arrival Station:
Post a Train Travel TipPost a Train Travel Tip **new
Post a Comment/Question/Picture/VideoPost a Comment/Question/Picture/Video
Pantry/Catering
✕ NO Pantry Car
✕ NO Catering
RSA - Rake Sharing
59439 and 59442 share rakes.
Rake/Coach Composition
LOCO-SLR-GEN-GEN-GEN-S3-S2-S1-LD-GEN-GEN-GEN-GEN-GEN-GEN-GEN-SLR
Loco
BL WCAM-1/BRC WAG-5A
News    PNR    Forum    Time-Table    Availability    Fare Chart    Map    Arr/Dep History    Trips    Gallery    ΣChains    X/O    Timeline    
Travel Time: 5h 12m    21 halts    Distance: 188 km    Avg Speed: 36 km/hr
Type: Passenger
Zone: WR/Western
Departs @ 12:15 (Avg on time)
Platform# 4
SMTWTFS
Mumbai Central/BCT 
Arrives @ 17:27 (Avg 9m late)
Platform# ???
SMTWTFS
Atul/ATUL 

21 halts. 42 intermediate Stations between Mumbai Central and Atul

Show ALL intermediate Stations  Show Old Time-Table

#TrkCodeStation NameX/OArrivesAvgDepartsAvgHaltPFDay#KmSpeedElevZoneAddress
1/==/BCTMumbai Central (9)»  -12:15+0410.0363mWRMumbai 400008, Maharashtra
2/==/DDRMumbai Dadar Western (6)X  12:28 12:25+412:30+62 5m515.9306mWRMumbai, Maharashtra
3/==/ADHMumbai Andheri (9)  12:52+312:54+62m8117.14412mWRMumbai, Maharashtra
4/==/BVIMumbai Borivali (8)X  13:18 13:11+613:20+92 9m6129.73519mWRMumbai - 400092, Maharashtra
5/==/BSRVasai Road (7)  13:50+213:52+32m4147.1467mWRVasai 401202, Maharashtra
6/==/VRVirar (8)X  14:03+314:05+42m3155.5436mWRDist. Palghar, Maharashtra
7/==/VTNVaitarna (2)  14:16 14:17+314:18+32 1m1164.0583mWRDist. Palghar, Maharashtra
8/==/SAHSaphale (2)X  14:25 14:26+614:27+52 1m1171.8648mWRDist. Palghar, Maharashtra
9/==/KLVKelve Road (3)  14:32 14:33+714:34+92 1m2178.27210mWRDist. Palghar, Maharashtra
10/==/PLGPalghar (3)X  14:41+714:43+92m1186.65619mWRPalghar, Maharashtra
11/==/BORBoisar (3)XO  14:55+1414:57+202m1197.91817mWRBoisar Tel.no-02525-266626, Maharashtra
12/==/VGNVangaon (3)XO  15:28 15:29+315:30+62 1m--1107.35311mWRDist. Palghar, Maharashtra
13/==/DRDDahanu Road (5)X  15:44+315:46+52m11119.66112mWRDahanu, Maharashtra
14/==/GVDGholvad (4)X  15:56 15:57+415:58+52 1m--1130.86114mWRGholvad, Maharashtra
15/==/UBRUmbargam Road (3)XO  16:07+716:09+92m11139.92730mWRUmbergaon, Gujarat
16/==/SJNSanjan (3)X  16:20 16:21+616:22+92 1m--1145.35822mWRSanjan, Gujarat
17/==/BLDBhilad (3)  16:33 16:34+816:35+132 1m--1156.94833mWRBhilad, Gujarat
18/==/KEBKarambeli (2)O  16:40 16:41+016:42+02 1m--1161.72429mWRNational Highway 8, Gujarat
19/==/VAPIVapi (3)X  16:58+517:00+62m11168.15027mWRVapi, Gujarat
20/==/BAGDBagwada (2)O  17:08-17:09-1m--1174.83522mWRNH8, Gujarat
21/==/UVDUdvada (3)X  17:13 17:14+717:15+72 1m--1177.76018mWRUdvada, Gujarat
22/==/PADPardi (3)X  17:20 17:21+917:22+92 1m--1183.74819mWRValsad, Gujarat
23/==/ATULAtul (3)•  17:26 17:27+917:28+92 1m--1187.72922mWRValsad, Gujarat
24/==/BLValsad (3)XO  17:42+318:00+218m21194.45915mWRValsad, Gujarat
25/==/DGIDungri (3)  18:08 18:09+718:10+82 1m11203.35120mWRNH 8, Gujarat
26/==/JRSJoravasan (2)  18:15 18:16-18:17-2 1m11208.47915mWRJoravasan, Gujarat
27/==/BIMBilimora Junction (4)XO  18:23 18:20+918:25+172 5m--1212.31811mWRBilimora, Gujarat
28/==/AMLAmalsad (3)  18:44+1218:46+162m--1217.93812mWRAmalsad, Gujarat
29/==/ACLAncheli (2)O  18:51 18:52-18:53-2 1m--1221.73420mWRNavsari, Gujarat
30/==/VDHVedchha (3)XO  18:59+1519:01+192m--1225.12313mWRNavsari, Gujarat
31/==/NVSNavsari (3)X  19:23+719:25+82m31233.55114mWRNavsari, Gujarat
32/==/MRLMaroli (3)XO  19:35+1119:37+132m--1241.92515mWRMaroli, Gujarat
33/==/SCHSachin (3)XO  19:52 19:53+819:54+82 1m11248.64311mWRKansad Road Sachin, Gujarat
34/==/BHETBhestan (2)  20:01 20:02+820:03+112 1m11254.32613mWRSurat, Gujarat
35/==/UDNUdhna Junction (3)XO  20:14+1020:16+222m11259.1716mWRUdhna 394210, Gujarat
36/==/STSurat (4)XO  20:49+221:09+220m21263.13919mWRSurat 395001, Gujarat
37/==/URNUtran (3)  21:15+1221:17+122m--1267.06415mWRSurat, Gujarat
38/==/KSEKosad (2)  21:20+1621:22+172m--1270.13717mWRSurat, Gujarat
39/==/GTXGothangam (2)XO  21:28+1821:30 21:29+182 1m--1273.81819mWRAmroli Sayan Rd, Gujarat
40/==/SYNSayan (3)O  21:39+1421:41 21:40+172 1m--1276.85021mWRSayan Satellite town, Gujarat
41/==/KIMKim (2)  21:52+1921:54 21:53+192 1m--1286.75218mWRNH 8, Gujarat
42/==/KSBKosamba Junction (3)X  22:02+2022:04 22:03+192 1m--1294.53730mWRKosamba, Gujarat
43/==/HATHathuran (2)O  22:08 22:10-22:10 22:11-2 1m--1298.93932mWRKosamba, Gujarat
44/==/PAOPanoli (3)X  22:15 22:17+2022:17 22:18+262 1m--1302.74429mWRPanoli, Gujarat
45/==/AKVAnkleshwar Junction (4)X  22:34 22:32+1522:36 22:33+152 1m21313.04719mWRAnkleshwar, Gujarat
46/==/BHBharuch Junction (5)  22:50 22:45+1522:52 22:47+162m31322.45619mWRBharuch, Gujarat
47/==/NIUNabipur (3)X  23:03 23:00+2423:05 23:02+262m--1334.45124mWRNabipur, Gujarat
48/==/VREVarediya (4)X  23:12 23:10+2623:14 23:11+272 1m--1341.25721mWRNH 8, Gujarat
49/==/PLJPalej (4)O  23:20 23:18+2623:22 23:19+302 1m--1347.83829mWRPalej, Gujarat
50/==/MYGMiyagam Karjan (2)X  23:43+2423:45+232m21363.06329mWRKarjan, Gujarat
51/==/ITAItola (4)X  23:56+2723:58+262m--1374.63027mWRNational Highway 8 Vadodara, Gujarat
52/==/BRCVadodara Junction (7)X  00:40 00:35+1300:50 00:45+1410m--2392.93136mWRVadodara 390005, Gujarat
53/==/BJWBajva (3)X  01:04 00:59+3801:06 01:01+382m--2400.12338mWRVadodara, Gujarat
54/==/RNORanoli (2)  01:16 01:11+3801:18 01:13+382m--2403.98339mWRVadodara District, Gujarat
55/==/NDRNandesari (2)  01:21 01:16-01:23 01:18-2m--2408.16042mWRNandesari, Gujarat
56/==/VDAVasad Junction (3)XO  01:28 01:23+3801:30 01:25+382m--2413.12540mWRVasad, Gujarat
57/==/ADDAdas Road (4)X  01:36+3501:38 01:37+352 1m--2417.73542mWRNational Highway 8, Gujarat
58/==/VXDVadod (3)  01:44+3501:46 01:45+352 1m--2421.83744mWRAnand District, Gujarat
59/==/ANNDAnand Junction (6)XO  02:03 01:56+1902:08 02:01+195m--2428.63444mWRAnand, Gujarat
60/--/KBRVKanjari Boriyavi Junction (4)X  02:14+3202:16 02:15+312 1m--2436.14139mWRKanjari, Gujarat
61/==/UTDUtarsanda (4)XO  02:23+3002:25 02:24+312 1m--2441.62240mWRUttarsanda, Gujarat
62/==/NDNadiad Junction (4)XO  02:35 02:39+2002:43 02:44+208 5m--2447.14037mWRNadiad, Gujarat
63/==/GTEGothaj (2)X  02:52 02:58+2202:54 02:59+232 1m--2456.35532mWRState Highway 3, Gujarat
64/==/MHDMahemdavad Kheda Road (4)X  03:12 03:08+1803:14 03:09+192 1m--2464.65037mWRMahemdavad, Gujarat
65/==/NEPNenpur (2)X  03:19 03:14-03:21 03:16-2m--2468.82935mWRState Highway 3, Gujarat
66/==/KANJKanij (3)  03:26 03:22+1703:28 03:23+192 1m--2471.72239mWRBareja-Barejadi Rd, Gujarat
67/==/BJDBarejadi Nandej (3)X  03:36 03:35+1603:38 03:36+182 1m--2476.02242mWRBareja-Barejadi Rd, Gujarat
68/==/GERGeratpur (2)X  03:52 03:45+1403:54 03:46+162 1m--2479.47944mWRAhmadabad, Gujarat
69/==/VTAVatva (4)X  03:58 03:50+2704:00 03:52+272m--2484.64849mWRDist. Ahmedabad 382445, Gujarat
70/==/MANManinagar (2)O  04:06 03:58+004:08 04:00+02m12489.5550mWRAhmadabad, Gujarat
71/==/ADIAhmedabad Junction (12)  04:25 04:35+0-42492.6-51mWRAhmedabad, Gujarat
Scroll to Top
Scroll to Bottom